| time (UTC) | temp F | wind direction | speed MPH | gust MPH | rain 1hr in | rain 24hr in | rain mn in | humidity % | barometer mb |
| 20260901192205 | 56 | 280 | 3.0 | 14.0 | 0.00 | 0.13 | 0.13 | 93 | 1011.6 |
| 20260901191705 | 56 | 175 | 4.0 | 14.0 | 0.00 | 0.13 | 0.13 | 93 | 1011.6 |
| 20260901191205 | 56 | 223 | 5.0 | 13.0 | 0.00 | 0.13 | 0.13 | 93 | 1011.6 |
| 20260901190704 | 57 | 262 | 5.0 | 14.0 | 0.00 | 0.13 | 0.13 | 93 | 1011.6 |
| 20260901190205 | 57 | 229 | 6.0 | 14.0 | 0.00 | 0.13 | 0.13 | 93 | 1011.5 |
| 20260901185704 | 57 | 207 | 6.0 | 14.0 | 0.00 | 0.13 | 0.13 | 93 | 1011.5 |
| 20260901185206 | 57 | 240 | 5.0 | 15.0 | 0.00 | 0.13 | 0.13 | 93 | 1011.5 |
| 20260901184707 | 57 | 246 | 5.0 | 15.0 | 0.00 | 0.13 | 0.13 | 93 | 1011.4 |
| 20260901184206 | 57 | 217 | 5.0 | 14.0 | 0.00 | 0.13 | 0.13 | 93 | 1011.3 |
| 20260901183705 | 58 | 225 | 4.0 | 15.0 | 0.00 | 0.13 | 0.13 | 93 | 1011.2 |
| 20260901183205 | 58 | 272 | 5.0 | 15.0 | 0.00 | 0.13 | 0.13 | 93 | 1011.3 |
| 20260901182705 | 58 | 215 | 4.0 | 15.0 | 0.00 | 0.13 | 0.13 | 93 | 1011.3 |
| 20260901182206 | 58 | 223 | 4.0 | 13.0 | 0.00 | 0.13 | 0.13 | 93 | 1011.2 |
| 20260901181705 | 58 | 194 | 4.0 | 13.0 | 0.00 | 0.13 | 0.13 | 93 | 1011.2 |
| 20260901181205 | 58 | 236 | 3.0 | 12.0 | 0.00 | 0.13 | 0.13 | 93 | 1011.1 |
| 20260901180705 | 58 | 270 | 4.0 | 12.0 | 0.00 | 0.13 | 0.13 | 93 | 1011.1 |
| 20260901180207 | 58 | 213 | 4.0 | 14.0 | 0.00 | 0.13 | 0.13 | 93 | 1011.2 |
| 20260901175705 | 58 | 247 | 4.0 | 14.0 | 0.00 | 0.13 | 0.13 | 93 | 1011.1 |
| 20260901174705 | 58 | 292 | 5.0 | 11.0 | 0.00 | 0.13 | 0.13 | 93 | 1011.0 |
| 20260901174205 | 58 | 271 | 4.0 | 11.0 | 0.00 | 0.13 | 0.13 | 93 | 1011.0 |
| 20260901173705 | 58 | 247 | 5.0 | 11.0 | 0.00 | 0.13 | 0.13 | 93 | 1011.1 |
| 20260901173205 | 58 | 261 | 5.0 | 11.0 | 0.00 | 0.13 | 0.13 | 93 | 1011.0 |
| 20260901172704 | 58 | 228 | 4.0 | 12.0 | 0.00 | 0.13 | 0.13 | 93 | 1011.1 |
| 20260901172205 | 59 | 206 | 4.0 | 12.0 | 0.00 | 0.13 | 0.13 | 94 | 1011.0 |
| 20260901171705 | 59 | 240 | 5.0 | 16.0 | 0.00 | 0.13 | 0.13 | 94 | 1011.0 |
| 20260901171205 | 59 | 251 | 5.0 | 16.0 | 0.00 | 0.13 | 0.13 | 94 | 1011.1 |
| 20260901170705 | 59 | 243 | 3.0 | 16.0 | 0.00 | 0.13 | 0.13 | 94 | 1011.1 |
| 20260901165705 | 60 | 216 | 4.0 | 11.0 | 0.00 | 0.13 | 0.13 | 94 | 1010.9 |
| 20260901165205 | 60 | 273 | 4.0 | 11.0 | 0.00 | 0.13 | 0.13 | 94 | 1010.9 |
| 20260901164706 | 60 | 281 | 3.0 | 11.0 | 0.00 | 0.13 | 0.13 | 95 | 1011.0 |
| 20260901164205 | 59 | 269 | 3.0 | 12.0 | 0.00 | 0.13 | 0.13 | 94 | 1010.9 |
| 20260901163704 | 59 | 281 | 4.0 | 12.0 | 0.00 | 0.13 | 0.13 | 94 | 1010.8 |
| 20260901163231 | 60 | 259 | 4.0 | 12.0 | 0.00 | 0.13 | 0.13 | 94 | 1010.8 |
| 20260901162705 | 60 | 261 | 3.0 | 12.0 | 0.00 | 0.13 | 0.13 | 94 | 1010.8 |
| 20260901162207 | 60 | 217 | 3.0 | 9.0 | 0.00 | 0.13 | 0.13 | 94 | 1010.7 |
| 20260901161705 | 60 | 288 | 4.0 | 12.0 | 0.00 | 0.13 | 0.13 | 95 | 1010.7 |
| 20260901161205 | 60 | 252 | 5.0 | 15.0 | 0.00 | 0.13 | 0.13 | 94 | 1010.7 |
| 20260901160705 | 60 | 268 | 5.0 | 16.0 | 0.01 | 0.13 | 0.13 | 94 | 1010.7 |
| 20260901155705 | 60 | 260 | 7.0 | 18.0 | 0.01 | 0.13 | 0.13 | 95 | 1010.4 |
| 20260901154706 | 60 | 238 | 7.0 | 19.0 | 0.01 | 0.13 | 0.13 | 95 | 1010.5 |
| 20260901153707 | 60 | 271 | 8.0 | 19.0 | 0.01 | 0.13 | 0.13 | 95 | 1010.4 |
| 20260901153225 | 60 | 196 | 7.0 | 18.0 | 0.02 | 0.13 | 0.13 | 95 | 1010.4 |
| 20260901152707 | 60 | 288 | 7.0 | 18.0 | 0.02 | 0.13 | 0.13 | 95 | 1010.5 |
| 20260901152222 | 60 | 233 | 7.0 | 16.0 | 0.02 | 0.13 | 0.13 | 95 | 1010.5 |
| 20260901151732 | 60 | 227 | 6.0 | 13.0 | 0.02 | 0.13 | 0.13 | 95 | 1010.4 |
| 20260901151205 | 60 | 233 | 6.0 | 18.0 | 0.02 | 0.13 | 0.13 | 94 | 1010.4 |
| 20260901150205 | 60 | 239 | 8.0 | 24.0 | 0.02 | 0.13 | 0.13 | 94 | 1010.3 |
| 20260901145705 | 60 | 247 | 8.0 | 24.0 | 0.02 | 0.13 | 0.13 | 94 | 1010.3 |
| 20260901145209 | 60 | 252 | 9.0 | 19.0 | 0.02 | 0.13 | 0.13 | 94 | 1010.3 |
| 20260901144708 | 60 | 213 | 9.0 | 19.0 | 0.02 | 0.13 | 0.13 | 94 | 1010.4 |
| 20260901144205 | 60 | 224 | 7.0 | 18.0 | 0.02 | 0.13 | 0.13 | 94 | 1010.3 |
| 20260901143705 | 60 | 182 | 7.0 | 17.0 | 0.03 | 0.13 | 0.13 | 94 | 1010.4 |
| 20260901143227 | 60 | 225 | 7.0 | 20.0 | 0.02 | 0.12 | 0.12 | 94 | 1010.3 |
| 20260901141705 | 60 | 209 | 10.0 | 20.0 | 0.03 | 0.12 | 0.12 | 94 | 1010.2 |
| 20260901141207 | 60 | 243 | 9.0 | 24.0 | 0.03 | 0.12 | 0.12 | 94 | 1010.1 |
| 20260901140712 | 60 | 242 | 9.0 | 24.0 | 0.03 | 0.11 | 0.11 | 94 | 1010.2 |
| 20260901135705 | 60 | 246 | 10.0 | 22.0 | 0.06 | 0.11 | 0.11 | 94 | 1010.2 |
| 20260901135205 | 60 | 313 | 9.0 | 20.0 | 0.06 | 0.10 | 0.10 | 94 | 1010.2 |
| 20260901134705 | 60 | 248 | 7.0 | 19.0 | 0.09 | 0.10 | 0.10 | 94 | 1010.3 |
| 20260901134205 | 60 | 242 | 8.0 | 23.0 | 0.09 | 0.10 | 0.10 | 94 | 1010.3 |
| 20260901133705 | 60 | 204 | 9.0 | 23.0 | 0.09 | 0.09 | 0.09 | 94 | 1010.3 |
| 20260901133205 | 60 | 227 | 10.0 | 24.0 | 0.09 | 0.09 | 0.09 | 94 | 1010.2 |
| 20260901132205 | 60 | 236 | 11.0 | 24.0 | 0.08 | 0.09 | 0.09 | 94 | 1010.2 |
| 20260901131705 | 60 | 242 | 10.0 | 19.0 | 0.08 | 0.09 | 0.09 | 93 | 1010.2 |
| 20260901130705 | 60 | 200 | 8.0 | 18.0 | 0.06 | 0.06 | 0.06 | 92 | 1010.1 |
| 20260901130227 | 60 | 247 | 8.0 | 17.0 | 0.04 | 0.05 | 0.05 | 92 | 1010.3 |
| 20260901125705 | 60 | 257 | 8.0 | 17.0 | 0.03 | 0.04 | 0.04 | 92 | 1010.3 |
| 20260901125205 | 60 | 236 | 7.0 | 20.0 | 0.02 | 0.03 | 0.03 | 92 | 1010.1 |
| 20260901124705 | 60 | 239 | 8.0 | 24.0 | 0.00 | 0.01 | 0.01 | 92 | 1010.1 |
| 20260901124205 | 60 | 211 | 10.0 | 26.0 | 0.00 | 0.01 | 0.01 | 91 | 1010.0 |
| 20260901123705 | 60 | 211 | 10.0 | 26.0 | 0.00 | 0.01 | 0.01 | 92 | 1009.9 |
| 20260901123205 | 60 | 232 | 8.0 | 26.0 | 0.00 | 0.01 | 0.01 | 91 | 1009.9 |
| 20260901122705 | 60 | 224 | 8.0 | 24.0 | 0.00 | 0.01 | 0.01 | 91 | 1009.9 |
| 20260901122207 | 60 | 327 | 10.0 | 24.0 | 0.00 | 0.01 | 0.01 | 91 | 1009.8 |
| 20260901121706 | 60 | 257 | 10.0 | 23.0 | 0.00 | 0.01 | 0.01 | 91 | 1009.8 |
| 20260901120705 | 60 | 254 | 9.0 | 22.0 | 0.00 | 0.01 | 0.01 | 90 | 1009.7 |
| 20260901120205 | 60 | 215 | 10.0 | 22.0 | 0.00 | 0.01 | 0.01 | 90 | 1009.6 |
| 20260901115705 | 60 | 238 | 10.0 | 26.0 | 0.00 | 0.01 | 0.01 | 90 | 1009.6 |
| 20260901115204 | 60 | 288 | 10.0 | 31.0 | 0.00 | 0.01 | 0.01 | 90 | 1009.6 |
| 20260901114707 | 60 | 215 | 11.0 | 31.0 | 0.00 | 0.01 | 0.01 | 89 | 1009.5 |
| 20260901113708 | 61 | 165 | 9.0 | 26.0 | 0.00 | 0.01 | 0.01 | 89 | 1009.5 |
| 20260901113206 | 61 | 246 | 10.0 | 26.0 | 0.00 | 0.01 | 0.01 | 89 | 1009.5 |
| 20260901112704 | 61 | 201 | 11.0 | 24.0 | 0.00 | 0.01 | 0.01 | 89 | 1009.5 |
| 20260901112206 | 61 | 219 | 11.0 | 24.0 | 0.00 | 0.01 | 0.01 | 89 | 1009.5 |
| 20260901111705 | 61 | 190 | 11.0 | 27.0 | 0.00 | 0.01 | 0.01 | 89 | 1009.5 |
| 20260901111205 | 61 | 250 | 11.0 | 27.0 | 0.00 | 0.01 | 0.01 | 90 | 1009.5 |
| 20260901110705 | 60 | 223 | 11.0 | 22.0 | 0.00 | 0.01 | 0.01 | 90 | 1009.4 |
| 20260901105705 | 60 | 221 | 9.0 | 22.0 | 0.00 | 0.01 | 0.01 | 90 | 1009.5 |
| 20260901105206 | 60 | 210 | 8.0 | 19.0 | 0.00 | 0.01 | 0.01 | 90 | 1009.6 |
| 20260901104705 | 60 | 294 | 7.0 | 22.0 | 0.00 | 0.01 | 0.01 | 90 | 1009.5 |
| 20260901104208 | 60 | 263 | 8.0 | 22.0 | 0.00 | 0.01 | 0.01 | 90 | 1009.6 |
| 20260901103705 | 60 | 244 | 9.0 | 26.0 | 0.00 | 0.01 | 0.01 | 90 | 1009.5 |
| 20260901103205 | 60 | 247 | 10.0 | 26.0 | 0.00 | 0.01 | 0.01 | 90 | 1009.6 |
| 20260901102705 | 60 | 241 | 11.0 | 23.0 | 0.00 | 0.01 | 0.01 | 91 | 1009.5 |
| 20260901102205 | 60 | 215 | 11.0 | 23.0 | 0.00 | 0.01 | 0.01 | 91 | 1009.4 |
| 20260901101723 | 60 | 236 | 10.0 | 20.0 | 0.00 | 0.01 | 0.01 | 91 | 1009.5 |
| 20260901100704 | 60 | 256 | 12.0 | 29.0 | 0.01 | 0.01 | 0.01 | 92 | 1009.5 |
| 20260901100205 | 59 | 195 | 10.0 | 29.0 | 0.01 | 0.01 | 0.01 | 92 | 1009.6 |
| 20260901095705 | 59 | 236 | 11.0 | 29.0 | 0.01 | 0.01 | 0.01 | 91 | 1009.5 |
| 20260901095209 | 60 | 211 | 11.0 | 29.0 | 0.01 | 0.01 | 0.01 | 91 | 1009.5 |
| 20260901094705 | 60 | 209 | 10.0 | 22.0 | 0.01 | 0.01 | 0.01 | 92 | 1009.6 |
| 20260901094205 | 60 | 247 | 12.0 | 22.0 | 0.01 | 0.01 | 0.01 | 92 | 1009.6 |
| 20260901093705 | 59 | 246 | 12.0 | 21.0 | 0.01 | 0.01 | 0.01 | 92 | 1009.8 |
| 20260901092205 | 58 | 263 | 9.0 | 21.0 | 0.01 | 0.01 | 0.01 | 92 | 1010.1 |
| 20260901091705 | 58 | 213 | 9.0 | 19.0 | 0.01 | 0.01 | 0.01 | 93 | 1010.1 |
| 20260901090205 | 57 | 250 | 10.0 | 20.0 | 0.00 | 0.00 | 0.00 | 91 | 1010.0 |
| 20260901085705 | 57 | 202 | 9.0 | 20.0 | 0.00 | 0.00 | 0.00 | 91 | 1010.0 |
| 20260901085205 | 57 | 188 | 9.0 | 18.0 | 0.00 | 0.00 | 0.00 | 91 | 1010.0 |
| 20260901084705 | 57 | 204 | 8.0 | 21.0 | 0.00 | 0.00 | 0.00 | 91 | 1010.0 |
| 20260901084205 | 57 | 216 | 8.0 | 21.0 | 0.00 | 0.00 | 0.00 | 90 | 1010.0 |
| 20260901083722 | 57 | 215 | 9.0 | 21.0 | 0.00 | 0.00 | 0.00 | 90 | 1010.1 |
| 20260901083205 | 57 | 197 | 8.0 | 16.0 | 0.00 | 0.00 | 0.00 | 90 | 1010.0 |
| 20260901082706 | 57 | 221 | 8.0 | 20.0 | 0.00 | 0.00 | 0.00 | 90 | 1010.1 |
| 20260901082205 | 57 | 257 | 8.0 | 20.0 | 0.00 | 0.00 | 0.00 | 90 | 1010.2 |
| 20260901081705 | 57 | 252 | 8.0 | 20.0 | 0.00 | 0.00 | 0.00 | 90 | 1010.2 |
| 20260901080705 | 57 | 239 | 7.0 | 18.0 | 0.00 | 0.00 | 0.00 | 90 | 1010.3 |
| 20260901080205 | 57 | 229 | 7.0 | 18.0 | 0.00 | 0.00 | 0.00 | 90 | 1010.3 |
| 20260901075706 | 57 | 242 | 7.0 | 17.0 | 0.00 | 0.00 | 0.00 | 90 | 1010.3 |
| 20260901075205 | 57 | 221 | 7.0 | 17.0 | 0.00 | 0.00 | 0.00 | 90 | 1010.4 |
| 20260901074707 | 57 | 215 | 7.0 | 16.0 | 0.00 | 0.00 | 0.00 | 90 | 1010.5 |
| 20260901074205 | 57 | 195 | 7.0 | 16.0 | 0.00 | 0.00 | 0.00 | 90 | 1010.5 |
| 20260901073705 | 57 | 242 | 6.0 | 17.0 | 0.00 | 0.00 | 0.00 | 90 | 1010.5 |
| 20260901073207 | 57 | 213 | 7.0 | 17.0 | 0.00 | 0.00 | 0.00 | 90 | 1010.5 |
| 20260901072706 | 57 | 215 | 7.0 | 17.0 | 0.00 | 0.00 | 0.00 | 90 | 1010.5 |
| 20260901072206 | 57 | 240 | 6.0 | 17.0 | 0.00 | 0.00 | 0.00 | 91 | 1010.5 |
| 20260901071705 | 57 | 223 | 7.0 | 17.0 | 0.00 | 0.00 | 0.00 | 91 | 1010.5 |
| 20260901071227 | 57 | 207 | 8.0 | 17.0 | 0.00 | 0.00 | 0.00 | 91 | 1010.5 |
| 20260901070705 | 56 | 286 | 7.0 | 14.0 | 0.00 | 0.00 | 0.00 | 91 | 1010.5 |
| 20260901070205 | 56 | 228 | 6.0 | 14.0 | 0.00 | 0.00 | 0.00 | 91 | 1010.4 |
| 20260901065705 | 56 | 176 | 7.0 | 15.0 | 0.00 | 0.00 | 0.00 | 92 | 1010.4 |
| 20260901065205 | 56 | 238 | 7.0 | 15.0 | 0.00 | 0.00 | 0.00 | 92 | 1010.4 |
| 20260901064705 | 56 | 213 | 6.0 | 14.0 | 0.00 | 0.00 | 0.00 | 92 | 1010.5 |
| 20260901064205 | 56 | 202 | 5.0 | 14.0 | 0.00 | 0.00 | 0.00 | 92 | 1010.6 |
| 20260901063704 | 56 | 228 | 6.0 | 15.0 | 0.00 | 0.00 | 0.00 | 93 | 1010.6 |
| 20260901062705 | 56 | 206 | 7.0 | 16.0 | 0.00 | 0.00 | 0.00 | 93 | 1010.7 |
| 20260901061705 | 55 | 200 | 8.0 | 16.0 | 0.00 | 0.00 | 0.00 | 93 | 1010.6 |
| 20260901061210 | 55 | 253 | 7.0 | 14.0 | 0.00 | 0.00 | 0.00 | 93 | 1010.8 |
| 20260901060705 | 55 | 0 | 7.0 | 19.0 | 0.00 | 0.00 | 0.00 | 93 | 1010.8 |
| 20260901060205 | 55 | 0 | 7.0 | 19.0 | 0.00 | 0.00 | 0.00 | 93 | 1010.9 |
| 20260901055704 | 55 | 214 | 7.0 | 19.0 | 0.00 | 0.00 | 0.00 | 93 | 1010.9 |
| 20260901055205 | 55 | 266 | 6.0 | 17.0 | 0.00 | 0.00 | 0.00 | 93 | 1010.9 |
| 20260901054705 | 55 | 0 | 6.0 | 17.0 | 0.00 | 0.00 | 0.00 | 93 | 1010.9 |
| 20260901053205 | 55 | 203 | 5.0 | 14.0 | 0.00 | 0.00 | 0.00 | 93 | 1011.1 |
| 20260901052706 | 55 | 215 | 5.0 | 14.0 | 0.00 | 0.00 | 0.00 | 93 | 1011.2 |
| 20260901052205 | 54 | 246 | 6.0 | 14.0 | 0.00 | 0.00 | 0.00 | 93 | 1011.2 |
| 20260901051705 | 54 | 215 | 6.0 | 16.0 | 0.00 | 0.00 | 0.00 | 93 | 1011.2 |
| 20260901051205 | 54 | 212 | 6.0 | 16.0 | 0.00 | 0.00 | 0.00 | 93 | 1011.2 |
| 20260901050726 | 54 | 0 | 6.0 | 16.0 | 0.00 | 0.00 | 0.00 | 93 | 1011.1 |
| 20260901050205 | 54 | 221 | 7.0 | 16.0 | 0.00 | 0.00 | 0.00 | 92 | 1011.2 |
| 20260901045705 | 54 | 200 | 6.0 | 14.0 | 0.00 | 0.00 | 0.00 | 92 | 1011.2 |
| 20260901045205 | 55 | 192 | 4.0 | 12.0 | 0.00 | 0.00 | 0.00 | 92 | 1011.1 |
| 20260901044705 | 55 | 0 | 3.0 | 9.0 | 0.00 | 0.00 | 0.00 | 92 | 1011.2 |
| 20260901044206 | 55 | 188 | 3.0 | 9.0 | 0.00 | 0.00 | 0.00 | 92 | 1011.2 |
| 20260901043705 | 55 | 225 | 3.0 | 12.0 | 0.00 | 0.00 | 0.00 | 92 | 1011.3 |
| 20260901043205 | 55 | 221 | 5.0 | 13.0 | 0.00 | 0.00 | 0.00 | 92 | 1011.3 |
| 20260901042705 | 55 | 202 | 6.0 | 13.0 | 0.00 | 0.00 | 0.00 | 92 | 1011.3 |
| 20260901042205 | 55 | 205 | 6.0 | 13.0 | 0.00 | 0.00 | 0.00 | 92 | 1011.4 |
| 20260901041709 | 55 | 200 | 5.0 | 12.0 | 0.00 | 0.01 | 0.00 | 92 | 1011.4 |
| 20260901040706 | 55 | 213 | 5.0 | 14.0 | 0.00 | 0.01 | 0.00 | 92 | 1011.4 |
| 20260901040205 | 55 | 229 | 6.0 | 14.0 | 0.00 | 0.01 | 0.00 | 92 | 1011.4 |
| 20260901035705 | 55 | 262 | 7.0 | 14.0 | 0.00 | 0.01 | 0.00 | 92 | 1011.4 |
| 20260901035205 | 55 | 239 | 7.0 | 14.0 | 0.00 | 0.01 | 0.00 | 92 | 1011.4 |
| 20260901034705 | 55 | 217 | 7.0 | 14.0 | 0.00 | 0.01 | 0.00 | 92 | 1011.5 |
| 20260901034205 | 55 | 208 | 7.0 | 16.0 | 0.00 | 0.01 | 0.00 | 92 | 1011.5 |
| 20260901033704 | 54 | 272 | 6.0 | 16.0 | 0.00 | 0.01 | 0.00 | 92 | 1011.6 |
| 20260901033205 | 54 | 230 | 7.0 | 15.0 | 0.00 | 0.01 | 0.00 | 92 | 1011.5 |
| 20260901032705 | 54 | 215 | 7.0 | 15.0 | 0.00 | 0.01 | 0.00 | 92 | 1011.6 |
| 20260901032205 | 54 | 215 | 6.0 | 13.0 | 0.00 | 0.01 | 0.00 | 92 | 1011.7 |
| 20260901031705 | 54 | 211 | 5.0 | 13.0 | 0.00 | 0.01 | 0.00 | 92 | 1011.7 |
| 20260901031205 | 54 | 247 | 5.0 | 13.0 | 0.00 | 0.01 | 0.00 | 92 | 1011.8 |
| 20260901030705 | 54 | 223 | 6.0 | 13.0 | 0.00 | 0.01 | 0.00 | 92 | 1011.8 |
| 20260901030205 | 54 | 206 | 6.0 | 13.0 | 0.00 | 0.01 | 0.00 | 92 | 1011.8 |
| 20260901025705 | 54 | 248 | 4.0 | 11.0 | 0.00 | 0.01 | 0.00 | 92 | 1011.8 |
| 20260901025205 | 54 | 209 | 4.0 | 8.0 | 0.00 | 0.01 | 0.00 | 92 | 1011.8 |
| 20260901024706 | 54 | 211 | 4.0 | 8.0 | 0.00 | 0.01 | 0.00 | 92 | 1011.8 |
| 20260901024205 | 54 | 219 | 3.0 | 8.0 | 0.00 | 0.01 | 0.00 | 92 | 1011.8 |
| 20260901023705 | 53 | 225 | 3.0 | 8.0 | 0.00 | 0.01 | 0.00 | 92 | 1011.9 |
| 20260901023207 | 53 | 217 | 3.0 | 8.0 | 0.00 | 0.01 | 0.00 | 92 | 1011.9 |
| 20260901022708 | 53 | 200 | 3.0 | 9.0 | 0.00 | 0.01 | 0.00 | 92 | 1011.9 |
| 20260901022204 | 53 | 215 | 3.0 | 9.0 | 0.00 | 0.01 | 0.00 | 92 | 1012.0 |
| 20260901021204 | 53 | 218 | 4.0 | 11.0 | 0.00 | 0.01 | 0.00 | 92 | 1012.1 |
| 20260901020706 | 53 | 0 | 5.0 | 11.0 | 0.00 | 0.01 | 0.00 | 92 | 1012.1 |
| 20260901020205 | 53 | 211 | 5.0 | 10.0 | 0.00 | 0.01 | 0.00 | 92 | 1012.1 |
| 20260901015706 | 53 | 231 | 4.0 | 10.0 | 0.00 | 0.01 | 0.00 | 92 | 1012.1 |
| 20260901015207 | 53 | 217 | 4.0 | 11.0 | 0.00 | 0.01 | 0.00 | 92 | 1012.1 |
| 20260901014706 | 53 | 229 | 4.0 | 11.0 | 0.00 | 0.01 | 0.00 | 92 | 1012.1 |
| 20260901014205 | 53 | 215 | 3.0 | 7.0 | 0.00 | 0.01 | 0.00 | 91 | 1012.2 |
| 20260901013705 | 53 | 212 | 3.0 | 7.0 | 0.00 | 0.01 | 0.00 | 91 | 1012.3 |
| 20260901012705 | 52 | 220 | 1.0 | 5.0 | 0.00 | 0.01 | 0.00 | 91 | 1012.4 |
| 20260901011705 | 52 | 216 | 1.0 | 7.0 | 0.00 | 0.01 | 0.00 | 91 | 1012.5 |
| 20260901011205 | 52 | 238 | 2.0 | 7.0 | 0.00 | 0.01 | 0.00 | 91 | 1012.5 |
| 20260901010705 | 52 | 215 | 2.0 | 5.0 | 0.00 | 0.01 | 0.00 | 91 | 1012.5 |
| 20260901010205 | 52 | 222 | 1.0 | 5.0 | 0.00 | 0.01 | 0.00 | 91 | 1012.5 |
| 20260901005705 | 52 | 237 | 1.0 | 5.0 | 0.00 | 0.01 | 0.00 | 91 | 1012.5 |
| 20260901005205 | 52 | 241 | 0.0 | 5.0 | 0.00 | 0.01 | 0.00 | 90 | 1012.5 |
| 20260901004704 | 52 | 225 | 0.0 | 4.0 | 0.00 | 0.01 | 0.00 | 90 | 1012.5 |
| 20260901004205 | 52 | 238 | 0.0 | 4.0 | 0.00 | 0.01 | 0.00 | 90 | 1012.7 |
| 20260901003705 | 52 | 226 | 1.0 | 5.0 | 0.00 | 0.01 | 0.00 | 90 | 1012.7 |
| 20260901002705 | 52 | 279 | 2.0 | 5.0 | 0.00 | 0.01 | 0.00 | 90 | 1012.7 |
| 20260901001705 | 52 | 207 | 2.0 | 5.0 | 0.00 | 0.01 | 0.00 | 89 | 1012.8 |
| 20260901000705 | 51 | 217 | 0.0 | 3.0 | 0.00 | 0.01 | 0.00 | 88 | 1012.8 |
| 20260901000205 | 51 | 257 | 0.0 | 2.0 | 0.00 | 0.01 | 0.00 | 88 | 1012.8 |
| 20260831235705 | 52 | 243 | 0.0 | 2.0 | 0.00 | 0.01 | 0.00 | 88 | 1012.9 |
| 20260831235204 | 52 | 243 | 0.0 | 2.0 | 0.00 | 0.01 | 0.00 | 88 | 1012.9 |
| 20260831234703 | 52 | 237 | 0.0 | 3.0 | 0.00 | 0.01 | 0.00 | 88 | 1012.9 |
| 20260831234206 | 52 | 259 | 0.0 | 4.0 | 0.00 | 0.01 | 0.00 | 88 | 1012.9 |
| 20260831233705 | 52 | 243 | 0.0 | 6.0 | 0.00 | 0.01 | 0.00 | 88 | 1012.9 |
| 20260831233205 | 52 | 251 | 0.0 | 6.0 | 0.00 | 0.01 | 0.00 | 88 | 1012.8 |
| 20260831232205 | 52 | 295 | 1.0 | 8.0 | 0.00 | 0.01 | 0.00 | 87 | 1012.9 |
| 20260831231704 | 52 | 209 | 2.0 | 7.0 | 0.00 | 0.01 | 0.00 | 87 | 1013.0 |
| 20260831231205 | 52 | 221 | 1.0 | 4.0 | 0.00 | 0.01 | 0.00 | 87 | 1013.0 |
| 20260831230705 | 53 | 209 | 1.0 | 4.0 | 0.00 | 0.01 | 0.01 | 87 | 1012.9 |
| 20260831225206 | 53 | 215 | 1.0 | 6.0 | 0.00 | 0.01 | 0.01 | 86 | 1013.0 |
| 20260831224706 | 53 | 236 | 2.0 | 6.0 | 0.00 | 0.01 | 0.01 | 86 | 1013.0 |
| 20260831224205 | 53 | 232 | 2.0 | 6.0 | 0.00 | 0.01 | 0.01 | 86 | 1013.0 |
| 20260831223705 | 53 | 234 | 2.0 | 5.0 | 0.00 | 0.01 | 0.01 | 86 | 1013.0 |
| 20260831223205 | 53 | 221 | 2.0 | 5.0 | 0.00 | 0.01 | 0.01 | 85 | 1012.9 |
| 20260831222705 | 53 | 216 | 2.0 | 5.0 | 0.00 | 0.01 | 0.01 | 85 | 1013.0 |
| 20260831221205 | 53 | 219 | 1.0 | 9.0 | 0.00 | 0.01 | 0.01 | 84 | 1013.0 |
| 20260831220705 | 53 | 211 | 2.0 | 9.0 | 0.00 | 0.01 | 0.01 | 84 | 1013.0 |
| 20260831220205 | 54 | 225 | 2.0 | 10.0 | 0.00 | 0.01 | 0.01 | 84 | 1012.9 |
| 20260831215707 | 54 | 232 | 2.0 | 10.0 | 0.00 | 0.01 | 0.01 | 83 | 1012.9 |
| 20260831214705 | 54 | 229 | 2.0 | 10.0 | 0.00 | 0.01 | 0.01 | 82 | 1012.9 |
| 20260831213705 | 54 | 196 | 2.0 | 4.0 | 0.00 | 0.01 | 0.01 | 82 | 1012.9 |
| 20260831213208 | 54 | 198 | 1.0 | 10.0 | 0.00 | 0.01 | 0.01 | 82 | 1012.9 |
| 20260831212705 | 54 | 203 | 1.0 | 10.0 | 0.00 | 0.01 | 0.01 | 82 | 1012.8 |
| 20260831212205 | 54 | 248 | 2.0 | 10.0 | 0.00 | 0.01 | 0.01 | 82 | 1012.8 |
| 20260831211705 | 54 | 274 | 3.0 | 10.0 | 0.00 | 0.01 | 0.01 | 82 | 1012.8 |
| 20260831211205 | 54 | 238 | 3.0 | 13.0 | 0.00 | 0.01 | 0.01 | 82 | 1012.7 |
| 20260831210731 | 54 | 257 | 3.0 | 13.0 | 0.00 | 0.01 | 0.01 | 82 | 1012.7 |
| 20260831205705 | 54 | 267 | 3.0 | 11.0 | 0.00 | 0.01 | 0.01 | 82 | 1012.5 |
| 20260831204705 | 54 | 298 | 3.0 | 12.0 | 0.00 | 0.01 | 0.01 | 82 | 1012.4 |
| 20260831204204 | 54 | 275 | 4.0 | 12.0 | 0.00 | 0.01 | 0.01 | 83 | 1012.4 |
| 20260831203704 | 54 | 228 | 4.0 | 11.0 | 0.00 | 0.01 | 0.01 | 83 | 1012.4 |
| 20260831203206 | 54 | 259 | 4.0 | 12.0 | 0.00 | 0.01 | 0.01 | 83 | 1012.3 |
| 20260831202706 | 55 | 241 | 4.0 | 12.0 | 0.00 | 0.01 | 0.01 | 82 | 1012.2 |
| 20260831202205 | 55 | 302 | 4.0 | 11.0 | 0.00 | 0.01 | 0.01 | 82 | 1012.2 |
| 20260831201703 | 55 | 331 | 3.0 | 11.0 | 0.00 | 0.01 | 0.01 | 82 | 1012.0 |
| 20260831200705 | 55 | 268 | 3.0 | 11.0 | 0.00 | 0.01 | 0.01 | 82 | 1012.0 |
| 20260831200205 | 55 | 263 | 3.0 | 10.0 | 0.00 | 0.01 | 0.01 | 82 | 1012.0 |
| 20260831195205 | 55 | 219 | 3.0 | 10.0 | 0.00 | 0.01 | 0.01 | 83 | 1011.9 |
| 20260831194705 | 55 | 250 | 3.0 | 10.0 | 0.00 | 0.01 | 0.01 | 82 | 1011.9 |
| 20260831194205 | 55 | 257 | 3.0 | 10.0 | 0.00 | 0.01 | 0.01 | 82 | 1011.9 |
| 20260831192705 | 55 | 214 | 3.0 | 10.0 | 0.00 | 0.01 | 0.01 | 82 | 1011.6 |